Location: Songkhla
(7.2000°N, 100.6000°E)
Time: 08:22:24
(UTC+07:00)

JAISAT 1 - Pass Details

Date: 01 October 2022
Orbit: 493 x 514 km, 97.7° (Epoch: 05 December)

Event Time Altitude Azimuth Distance (km) Brightness Sun altitude
Rises 15:44:57 0° 166° (SSE) 2,637 ? 34.7°
Reaches altitude 10° 15:47:03 10° 164° (SSE) 1,745 ? 34.2°
Maximum altitude 15:50:49 75° 79° (E) 534 ? 33.3°
Drops below altitude 10° 15:54:31 10° 353° (N) 1,726 ? 32.4°
Sets 15:56:36 0° 352° (N) 2,605 ? 31.9°
